User: anonymous   Login
Location: Unspecified
(0.0000°N, 0.0000°E)
Time: 21:55:51
(UTC+00:00)
Language:

TBA - TO BE ASSIGNED - Orbit

View from above orbital plane
View from above orbital plane
View from above satellite
View from above satellite

Ground track
Ground track

The orbit is defined by the following mean orbital elements,

1 68193U          26144.67394398 +.00000000 +00000-0 +56168-3 0 00005
2 68193  53.1602 273.3080 0000919  94.4347 265.6761 15.34399693    04
Epoch (UTC): 24 May 2026 16:10:28
Eccentricity: 0.0000919
inclination: 53.1602°
perigee height: 462 km
apogee height: 463 km
right ascension of ascending node: 273.3080°
argument of perigee: 94.4347°
revolutions per day: 15.34399693
mean anomaly at epoch: 265.6761°

The dashed part of the orbit path shows where the satellite is in the earth's shadow,  

DLR